This is the latest recevied weather packets stored in our database for station/object OE6ATD-13. If no packets are shown the sender has not sent any weather packets the latest 10 day(s).
| Time | Temp. | Humidity | Pressure | Rain* | Wind** | Luminosity | Snow |
|---|---|---|---|---|---|---|---|
| 1778235320 | 21.67° C | 44% | 1016.1 hPa | 0 mm | - | 880 W/m² | - |
| 1778234715 | 21.11° C | 43% | 1016.3 hPa | 0 mm | - | 860 W/m² | - |
| 1778234127 | 20.56° C | 45% | 1016.4 hPa | 0 mm | - | 846 W/m² | - |
| 1778233522 | 20.56° C | 43% | 1016.4 hPa | 0 mm | - | 718 W/m² | - |
| 1778232918 | 20.56° C | 45% | 1016.4 hPa | 0 mm | - | 846 W/m² | - |
| 1778232329 | 21.11° C | 45% | 1016.4 hPa | 0 mm | - | 818 W/m² | - |
| 1778231725 | 20.56° C | 47% | 1016.4 hPa | 0 mm | - | 832 W/m² | - |
| 1778231121 | 20.56° C | 49% | 1016.4 hPa | 0 mm | - | 807 W/m² | - |
| 1778230517 | 20° C | 51% | 1016.6 hPa | 0 mm | - | 757 W/m² | - |
| 1778229927 | 19.44° C | 51% | 1016.5 hPa | 0 mm | - | 592 W/m² | - |
| 1778229323 | 19.44° C | 52% | 1016.5 hPa | 0 mm | - | 605 W/m² | - |
| 1778228719 | 19.44° C | 52% | 1016.5 hPa | 0 mm | - | 696 W/m² | - |
| 1778228129 | 19.44° C | 54% | 1016.6 hPa | 0 mm | - | 677 W/m² | - |
| 1778227525 | 18.89° C | 57% | 1016.6 hPa | 0 mm | - | 643 W/m² | - |
| 1778226921 | 17.78° C | 58% | 1016.5 hPa | 0 mm | - | 610 W/m² | - |
| 1778226316 | 17.22° C | 61% | 1016.5 hPa | 0 mm | - | 595 W/m² | - |
| 1778225727 | 17.78° C | 61% | 1016.6 hPa | 0 mm | - | 566 W/m² | - |
| 1778225128 | 17.78° C | 61% | 1016.6 hPa | 0 mm | - | 529 W/m² | - |
| 1778224524 | 16.67° C | 67% | 1016.5 hPa | 0 mm | - | 478 W/m² | - |
| 1778223920 | 16.67° C | 70% | 1016.6 hPa | 0 mm | - | 404 W/m² | - |
| 1778223316 | 16.11° C | 71% | 1016.4 hPa | 0 mm | - | 440 W/m² | - |
| 1778222727 | 15.56° C | 72% | 1016.4 hPa | 0 mm | - | 429 W/m² | - |
| 1778222123 | 14.44° C | 74% | 1016.5 hPa | 0 mm | - | 388 W/m² | - |
| 1778221518 | 13.33° C | 78% | 1016.4 hPa | 0 mm | - | 354 W/m² | - |
| 1778220929 | 12.78° C | 87% | 1016.3 hPa | 0 mm | - | 323 W/m² | - |
* Rain latest hour (hover to see other rain measurements)
** Current wind speed in m/s (hover to see current wind gust speed)